Date String (YYYY-MM-DD hh:mm:ss) UTC,Instrument flags,Ambient pressure (hPa),Sample flow (lpm),Bypass flow (lpm),Sample temperature (°C),Ambient temperature (°C),ASC tube jacket temperature (°C),LED temperature (°C),Box temperature (°C),Sample RH (%),Span deviation,Mass concentration (μg/m³),Mass concentration (μg/m³),Mass concentration (μg/m³)
DateTimeUTC,F1_M11,P_M11,Q1_M11,Q2_M11,T1_M11,T2_M11,T3_M11,T4_M11,T5_M11,U1_M11,ZSPAN_M11,X0_M11,X2_M11,X1_M11
2021-12-08 21:00:00,,0813.4,4.99,0.00,24.5,23.5,00.0,33.5,26.1,06.7,0000.0,0004.28,0000.48,0000.21
2021-12-08 21:01:00,,0813.3,5.00,0.00,24.5,23.5,00.0,33.5,26.1,06.8,0000.0,0003.56,0000.49,0000.21
2021-12-08 21:02:00,,0813.4,5.00,0.00,24.4,23.4,00.0,33.5,26.1,06.8,0000.0,0003.62,0000.51,0000.21
2021-12-08 21:03:00,,0813.4,5.01,0.00,24.4,23.4,00.0,33.5,26.1,06.9,0000.0,0003.75,0000.51,0000.21
2021-12-08 21:04:00,,0813.3,5.01,0.00,24.4,23.5,00.0,33.5,26.1,06.9,0000.0,0004.55,0000.54,0000.22
2021-12-08 21:05:00,,0813.2,5.00,0.00,24.5,23.5,00.0,33.5,26.2,07.0,0000.0,0003.65,0000.55,0000.22
2021-12-08 21:06:00,,0813.2,4.99,0.00,24.4,23.5,00.0,33.5,26.1,07.1,0000.0,0003.38,0000.60,0000.22
2021-12-08 21:07:00,,0813.0,5.00,0.00,24.5,23.5,00.0,33.5,26.2,07.2,0000.0,0003.35,0000.66,0000.23
2021-12-08 21:08:00,,0813.1,5.00,0.00,24.4,23.5,00.0,33.5,26.3,07.1,0000.0,0003.34,0000.68,0000.25
2021-12-08 21:09:00,,0813.1,5.00,0.00,24.4,23.5,00.0,33.5,26.2,07.2,0000.0,0003.32,0000.69,0000.25
2021-12-08 21:10:00,,0813.1,5.00,0.00,24.4,23.5,00.0,33.5,26.1,07.2,0000.0,0003.38,0000.68,0000.25
2021-12-08 21:11:00,,0813.1,5.02,0.00,24.4,23.5,00.0,33.5,26.1,07.1,0000.0,0003.41,0000.68,0000.26
2021-12-08 21:12:00,,0813.1,4.98,0.00,24.4,23.5,00.0,33.5,26.1,07.2,0000.0,0003.40,0000.69,0000.26
2021-12-08 21:13:00,,0813.1,5.01,0.00,24.4,23.4,00.0,33.4,26.0,07.4,0000.0,0003.34,0000.69,0000.27
2021-12-08 21:14:00,,0813.1,5.00,0.00,24.4,23.4,00.0,33.4,26.0,07.4,0000.0,0003.30,0000.70,0000.27
2021-12-08 21:15:00,,0813.1,5.01,0.00,24.4,23.3,00.0,33.4,25.9,07.4,0000.0,0002.27,0000.67,0000.27
2021-12-08 21:16:00,,0813.1,4.98,0.00,24.3,23.3,00.0,33.4,25.9,07.5,0000.0,0002.16,0000.66,0000.26
2021-12-08 21:17:00,,0813.1,5.01,0.00,24.3,23.3,00.0,33.4,26.0,07.4,0000.0,0001.77,0000.62,0000.26
2021-12-08 21:18:00,,0813.0,5.00,0.00,24.3,23.3,00.0,33.4,26.0,07.4,0000.0,0001.50,0000.55,0000.25
2021-12-08 21:19:00,,0812.8,5.01,0.00,24.3,23.4,00.0,33.4,26.0,07.3,0000.0,0001.39,0000.53,0000.25
2021-12-08 21:20:00,,0812.9,4.99,0.00,24.3,23.4,00.0,33.4,26.0,07.4,0000.0,0001.30,0000.51,0000.25
2021-12-08 21:21:00,,0812.9,5.01,0.00,24.3,23.4,00.0,33.4,26.0,07.4,0000.0,0001.26,0000.51,0000.25
2021-12-08 21:22:00,,0812.8,5.00,0.00,24.3,23.4,00.0,33.4,26.0,07.5,0000.0,0000.92,0000.48,0000.25
2021-12-08 21:23:00,,0812.9,5.01,0.00,24.3,23.4,00.0,33.4,26.0,07.5,0000.0,0000.82,0000.45,0000.25
2021-12-08 21:24:00,,0812.9,4.99,0.00,24.3,23.4,00.0,33.4,26.0,07.5,0000.0,0000.75,0000.40,0000.24
2021-12-08 21:25:00,,0812.9,5.00,0.00,24.3,23.5,00.0,33.4,26.1,07.5,0000.0,0000.64,0000.38,0000.24
2021-12-08 21:26:00,,0812.9,4.99,0.00,24.4,23.4,00.0,33.4,26.1,07.6,0000.0,0000.84,0000.42,0000.24
2021-12-08 21:27:00,,0813.1,4.99,0.00,24.4,23.5,00.0,33.4,26.1,07.6,0000.0,0001.19,0000.49,0000.25
2021-12-08 21:28:00,,0812.9,4.99,0.00,24.4,23.5,00.0,33.4,26.1,07.6,0000.0,0001.43,0000.56,0000.27
2021-12-08 21:29:00,,0812.8,5.00,0.00,24.4,23.5,00.0,33.4,26.1,07.6,0000.0,0001.47,0000.57,0000.27
2021-12-08 21:30:00,,0812.7,5.02,0.00,24.4,23.5,00.0,33.4,26.2,07.3,0000.0,0001.56,0000.62,0000.27
2021-12-08 21:31:00,,0813.0,4.99,0.00,24.4,23.5,00.0,33.4,26.2,07.3,0000.0,0002.34,0000.70,0000.28
2021-12-08 21:32:00,,0812.8,4.99,0.00,24.4,23.5,00.0,33.4,26.2,07.5,0000.0,0003.75,0000.75,0000.29
2021-12-08 21:33:00,,0812.8,5.01,0.00,24.4,23.5,00.0,33.4,26.2,07.9,0000.0,0004.07,0000.77,0000.29
2021-12-08 21:34:00,,0813.0,5.00,0.00,24.4,23.4,00.0,33.4,26.2,08.2,0000.0,0005.21,0000.85,0000.30
2021-12-08 21:35:00,,0813.0,4.99,0.00,24.3,23.4,00.0,33.4,26.1,08.1,0000.0,0005.34,0000.87,0000.30
2021-12-08 21:36:00,,0812.9,5.00,0.00,24.3,23.4,00.0,33.4,26.0,08.5,0000.0,0006.19,0000.92,0000.31
2021-12-08 21:37:00,,0812.8,5.01,0.00,24.3,23.4,00.0,33.4,26.1,08.8,0000.0,0008.06,0001.00,0000.32
2021-12-08 21:38:00,,0812.8,5.01,0.00,24.3,23.4,00.0,33.4,26.0,08.8,0000.0,0007.88,0000.93,0000.32
2021-12-08 21:39:00,,0812.7,4.99,0.00,24.3,23.3,00.0,33.4,26.0,09.0,0000.0,0008.22,0000.98,0000.32
2021-12-08 21:40:00,,0812.8,5.00,0.00,24.3,23.3,00.0,33.4,26.0,09.0,0000.0,0008.56,0001.05,0000.33
2021-12-08 21:41:00,,0812.7,5.01,0.00,24.2,23.2,00.0,33.3,26.0,09.2,0000.0,0009.41,0001.10,0000.33
2021-12-08 21:42:00,,0812.7,5.00,0.00,24.2,23.2,00.0,33.3,26.0,09.4,0000.0,0009.50,0001.18,0000.33
2021-12-08 21:43:00,,0812.7,5.00,0.00,24.2,23.2,00.0,33.3,26.0,09.2,0000.0,0009.81,0001.23,0000.34
2021-12-08 21:44:00,,0812.7,5.01,0.00,24.2,23.2,00.0,33.3,25.9,09.3,0000.0,0009.95,0001.28,0000.34
2021-12-08 21:45:00,,0812.7,4.99,0.00,24.2,23.2,00.0,33.3,26.0,09.5,0000.0,0009.51,0001.30,0000.33
2021-12-08 21:46:00,,0812.5,4.99,0.00,24.2,23.1,00.0,33.3,25.9,09.5,0000.0,0010.17,0001.39,0000.34
2021-12-08 21:47:00,,0812.7,5.01,0.00,24.1,23.1,00.0,33.3,25.9,09.6,0000.0,0010.91,0001.57,0000.36
2021-12-08 21:48:00,,0812.7,4.99,0.00,24.1,23.1,00.0,33.2,25.9,09.7,0000.0,0009.80,0001.55,0000.37
2021-12-08 21:49:00,,0812.7,5.00,0.00,24.1,23.0,00.0,33.2,25.9,09.8,0000.0,0010.27,0001.53,0000.37
2021-12-08 21:50:00,,0812.8,5.00,0.00,24.1,23.0,00.0,33.2,25.9,10.0,0000.0,0010.34,0001.49,0000.37
2021-12-08 21:51:00,,0812.9,4.99,0.00,24.1,23.0,00.0,33.2,25.8,09.9,0000.0,0010.23,0001.44,0000.37
2021-12-08 21:52:00,,0813.1,5.01,0.00,24.1,23.0,00.0,33.2,25.7,10.0,0000.0,0009.68,0001.38,0000.37
2021-12-08 21:53:00,,0813.2,4.99,0.00,24.0,23.0,00.0,33.2,25.7,10.2,0000.0,0009.47,0001.31,0000.37
2021-12-08 21:54:00,,0812.9,5.01,0.00,24.0,23.0,00.0,33.2,25.7,10.1,0000.0,0008.91,0001.22,0000.37
2021-12-08 21:55:00,,0812.8,4.99,0.00,24.0,23.0,00.0,33.1,25.7,10.1,0000.0,0008.24,0001.19,0000.36
2021-12-08 21:56:00,,0812.9,5.00,0.00,24.0,23.0,00.0,33.1,25.7,10.0,0000.0,0008.90,0001.20,0000.36
2021-12-08 21:57:00,,0812.9,5.01,0.00,24.0,23.0,00.0,33.1,25.7,10.3,0000.0,0009.81,0001.15,0000.37
2021-12-08 21:58:00,,0813.2,4.99,0.00,24.0,23.0,00.0,33.1,25.6,10.3,0000.0,0009.06,0001.11,0000.36
2021-12-08 21:59:00,,0812.9,4.99,0.00,23.9,23.0,00.0,33.1,25.7,10.3,0000.0,0008.72,0001.07,0000.34
